Location: Holbach
(51.5399°N, 10.6036°E)
Time: 10:23:07
(UTC+00:00)

Cosmos 1092 Rocket - Pass Details

Date: 22 June 2021
Orbit: 955 x 994 km, 82.9° (Epoch: 28 July)

Event Time Altitude Azimuth Distance (km) Brightness Sun altitude
Exits shadow 22:57:05 - 123° (ESE) 3,133 6.3 -14.9°
Reaches altitude 10° 22:58:54 10° 111° (ESE) 2,686 6.1 -14.9°
Maximum altitude 23:02:23 16° 76° (ENE) 2,291 6.1 -14.9°
Drops below altitude 10° 23:05:52 10° 41° (NE) 2,701 7.0 -15.0°
Sets 23:09:24 0° 21° (NNE) 3,657 8.3 -15.0°
